TimeCST,TemperatureF,Dew PointF,Humidity,Sea Level PressureIn,VisibilityMPH,Wind Direction,Wind SpeedMPH,Gust SpeedMPH,PrecipitationIn,Events,Conditions,WindDirDegrees,DateUTC
12:51 AM,64.4,62.6,94,29.89,0.5,SW,5.8,-,N/A,Fog,Fog,220,2012-12-25 06:51:00
12:56 AM,64.0,63.0,96,29.89,0.5,SW,4.6,-,N/A,Fog,Fog,220,2012-12-25 06:56:00
1:56 AM,64.0,63.0,96,29.89,0.8,SW,5.8,-,N/A,,Overcast,220,2012-12-25 07:56:00
2:28 AM,64.4,62.6,94,29.88,2.0,SSW,5.8,-,N/A,,Overcast,200,2012-12-25 08:28:00
2:56 AM,64.0,63.0,96,29.87,2.0,South,4.6,-,N/A,,Overcast,180,2012-12-25 08:56:00
3:20 AM,64.4,62.6,94,29.86,0.8,Calm,Calm,-,N/A,,Overcast,0,2012-12-25 09:20:00
3:56 AM,64.0,63.0,96,29.84,0.5,SSE,5.8,-,N/A,Fog,Fog,150,2012-12-25 09:56:00
4:03 AM,64.4,62.6,94,29.85,0.2,SSE,4.6,-,N/A,Fog,Fog,160,2012-12-25 10:03:00
4:56 AM,64.0,63.0,96,29.83,0.2,SE,8.1,-,N/A,Fog,Fog,130,2012-12-25 10:56:00
5:05 AM,64.4,62.6,94,29.84,0.8,SE,6.9,-,N/A,,Mist,130,2012-12-25 11:05:00
5:40 AM,62.6,62.6,100,29.83,0.2,ESE,8.1,-,N/A,Fog,Fog,120,2012-12-25 11:40:00
5:56 AM,63.0,62.1,97,29.82,0.2,SE,6.9,-,N/A,Fog,Fog,130,2012-12-25 11:56:00
6:45 AM,64.4,62.6,94,29.82,0.5,SSE,6.9,-,0.00,Fog-Rain-Thunderstorm,Light Thunderstorms and Rain,150,2012-12-25 12:45:00
6:56 AM,64.0,63.0,96,29.83,0.5,South,6.9,-,0.04,Fog-Rain-Thunderstorm,Heavy Thunderstorms and Rain,180,2012-12-25 12:56:00
7:17 AM,64.4,62.6,94,29.82,3.0,SSE,11.5,-,0.09,Rain-Thunderstorm,Light Thunderstorms and Rain,160,2012-12-25 13:17:00
7:21 AM,64.4,62.6,94,29.82,3.0,SSE,9.2,-,0.09,Rain,Light Rain,160,2012-12-25 13:21:00
7:56 AM,64.9,64.0,97,29.83,5.0,SSE,9.2,-,0.09,,Overcast,160,2012-12-25 13:56:00
8:19 AM,66.2,64.4,94,29.83,3.0,South,9.2,-,N/A,,Overcast,170,2012-12-25 14:19:00
8:47 AM,66.2,64.4,94,29.82,3.0,SSE,9.2,-,N/A,,Overcast,160,2012-12-25 14:47:00
8:56 AM,68.0,64.9,90,29.81,3.0,South,11.5,-,N/A,,Overcast,170,2012-12-25 14:56:00
9:29 AM,69.8,66.2,88,29.85,10.0,South,9.2,-,N/A,,Overcast,180,2012-12-25 15:29:00
9:56 AM,71.1,64.9,81,29.83,7.0,South,17.3,23.0,N/A,,Mostly Cloudy,170,2012-12-25 15:56:00
10:25 AM,71.6,64.4,78,29.83,7.0,South,19.6,27.6,N/A,,Mostly Cloudy,170,2012-12-25 16:25:00
10:56 AM,72.0,63.0,73,29.79,7.0,South,13.8,21.9,N/A,,Overcast,170,2012-12-25 16:56:00
11:18 AM,71.6,62.6,73,29.78,7.0,South,19.6,25.3,N/A,,Overcast,170,2012-12-25 17:18:00
11:29 AM,71.6,62.6,73,29.76,7.0,South,19.6,32.2,N/A,,Mostly Cloudy,170,2012-12-25 17:29:00
11:56 AM,72.0,63.0,73,29.73,7.0,South,18.4,32.2,N/A,,Mostly Cloudy,170,2012-12-25 17:56:00
12:56 PM,72.0,63.0,73,29.73,7.0,South,11.5,21.9,N/A,,Overcast,180,2012-12-25 18:56:00
1:56 PM,72.0,63.0,73,29.71,7.0,South,15.0,23.0,N/A,,Overcast,170,2012-12-25 19:56:00
2:56 PM,72.0,63.0,73,29.68,8.0,SSE,19.6,26.5,N/A,,Overcast,160,2012-12-25 20:56:00
3:03 PM,71.6,64.4,78,29.68,8.0,South,19.6,29.9,0.00,Rain,Light Rain,170,2012-12-25 21:03:00
3:56 PM,68.0,64.0,87,29.63,7.0,SSE,16.1,-,0.00,,Overcast,150,2012-12-25 21:56:00
4:37 PM,69.8,64.4,83,29.64,7.0,South,19.6,29.9,0.00,Thunderstorm,Thunderstorm,170,2012-12-25 22:37:00
4:56 PM,68.0,62.1,81,29.61,7.0,South,18.4,27.6,0.00,Thunderstorm,Thunderstorm,180,2012-12-25 22:56:00
5:29 PM,69.8,64.4,83,29.59,7.0,SSE,19.6,32.2,0.00,Thunderstorm,Thunderstorm,160,2012-12-25 23:29:00
5:36 PM,69.8,64.4,83,29.59,7.0,South,24.2,32.2,0.00,Rain,Light Rain,170,2012-12-25 23:36:00
5:56 PM,69.1,64.9,87,29.57,6.0,South,26.5,34.5,0.02,Rain,Light Rain,170,2012-12-25 23:56:00
6:02 PM,69.8,64.4,83,29.58,6.0,South,23.0,33.4,0.00,Thunderstorm,Overcast,170,2012-12-26 00:02:00
6:56 PM,68.0,64.9,90,29.58,7.0,South,21.9,34.5,0.03,Thunderstorm,Thunderstorm,180,2012-12-26 00:56:00
7:07 PM,68.0,64.4,88,29.58,7.0,South,24.2,34.5,N/A,,Overcast,180,2012-12-26 01:07:00
7:27 PM,68.0,64.4,88,29.56,5.0,South,21.9,31.1,0.01,Rain,Rain,170,2012-12-26 01:27:00
7:35 PM,68.0,64.4,88,29.55,5.0,South,27.6,35.7,0.01,Rain-Thunderstorm,Light Thunderstorms and Rain,170,2012-12-26 01:35:00
7:37 PM,68.0,64.4,88,29.55,5.0,South,24.2,35.7,0.01,Rain-Thunderstorm,Light Thunderstorms and Rain,190,2012-12-26 01:37:00
7:42 PM,66.2,62.6,88,29.63,7.0,WNW,23.0,35.7,0.01,Rain-Thunderstorm,Light Thunderstorms and Rain,290,2012-12-26 01:42:00
7:49 PM,59.0,53.6,82,29.64,7.0,West,16.1,33.4,0.01,Rain-Thunderstorm,Light Thunderstorms and Rain,260,2012-12-26 01:49:00
7:56 PM,57.0,53.1,87,29.65,3.0,West,16.1,28.8,0.08,Rain-Thunderstorm,Heavy Thunderstorms and Rain,280,2012-12-26 01:56:00
8:18 PM,53.6,51.8,94,29.65,2.0,West,8.1,21.9,0.23,Rain-Thunderstorm,Heavy Thunderstorms and Rain,260,2012-12-26 02:18:00
8:24 PM,53.6,51.8,94,29.64,3.0,West,5.8,-,0.29,Rain-Thunderstorm,Thunderstorms and Rain,260,2012-12-26 02:24:00
8:56 PM,53.1,50.0,89,29.62,7.0,West,5.8,-,0.32,Rain,Light Rain,260,2012-12-26 02:56:00
9:56 PM,55.0,50.0,83,29.66,10.0,WNW,9.2,-,0.00,,Mostly Cloudy,300,2012-12-26 03:56:00
10:56 PM,55.0,50.0,83,29.68,10.0,NW,9.2,-,N/A,,Mostly Cloudy,320,2012-12-26 04:56:00
11:56 PM,54.0,48.0,80,29.69,10.0,WSW,11.5,18.4,N/A,,Partly Cloudy,250,2012-12-26 05:56:00